Flag for Canada Weather past 2 weeks in Rainy River, Ontario, Canada

Now
38 °F

Sunny.


Feels Like: 30 °F
Forecast: 13 / 35 °F
Wind: 12 mph from North

Location: Baudette International Airport


UV Index: 3 (Moderate)

Visibility: 10 mi


Pressure: 30.34 "Hg

Humidity: 34%

Dew point: 12 °F

Location of Rainy RiverLocation

Historic Weather in Rainy River

°F

Rainy River temperature yesterday

Maximum temperature yesterday: 37 °F (at 3:53 PM)
Minimum temperature yesterday: 17 °F (at 3:53 AM)
Average temperature yesterday: 28 °F

Past Weeks' High & Low Weather Summary

 TemperatureHumidityPressure
High56 °F (Apr 9, 3:53 PM)100% (Apr 5, 5:02 AM)30.38 "Hg (Apr 5, 5:02 AM)
Low5 °F (Apr 15, 6:53 AM)25% (Apr 6, 4:53 PM)29.37 "Hg (Apr 9, 3:53 PM)
Average32 °F64%29.98 "Hg
* Reported Apr 2 2:53 PM — Apr 17 2:53 PM, Rainy River, Weather by CustomWeather, © 2014

Note: Actual official high and low records may vary slightly from our data, if they occured in-between our weather recording intervals... More about our weather records

Advertising

Historic Weather Conditions — Data for Previous 24 hours

 ConditionsComfort  
Time TempWeatherWind HumidityBarometerVisibility
2:53 PM
Apr 17
38 °FSunny.12 mph34%30.34 "Hg10 mi
1:53 PM37 °FSunny.14 mph36%30.34 "Hg10 mi
12:53 PM37 °FSunny.9 mph37%30.35 "Hg10 mi
11:53 AM34 °FSunny.13 mph46%30.36 "Hg10 mi
10:53 AM33 °FSunny.12 mph43%30.36 "Hg10 mi
9:53 AM32 °FSunny.5 mph38%30.37 "Hg10 mi
8:53 AM28 °FSunny.6 mph43%30.38 "Hg10 mi
7:53 AM23 °FSunny.3 mph53%30.38 "Hg10 mi
6:53 AM17 °FClear.No wind68%30.36 "Hg10 mi
5:53 AM19 °FClear.3 mph57%30.35 "Hg10 mi
4:53 AM18 °FClear.3 mph62%30.34 "Hg10 mi
3:53 AM21 °FClear.5 mph52%30.33 "Hg10 mi
2:53 AM24 °FClear.8 mph46%30.33 "Hg10 mi
1:53 AM25 °FClear.7 mph44%30.33 "Hg10 mi
12:53 AM26 °FClear.8 mph46%30.33 "Hg10 mi
11:53 PM
Apr 16
28 °FPassing clouds.8 mph41%30.32 "Hg10 mi
10:53 PM28 °FPassing clouds.10 mph43%30.32 "Hg10 mi
9:53 PM29 °FClear.8 mph41%30.31 "Hg10 mi
8:53 PM30 °FSunny.8 mph41%30.30 "Hg10 mi
7:53 PM33 °FSunny.10 mph35%30.28 "Hg10 mi
6:53 PM36 °FSunny.14 mph27%30.27 "Hg10 mi
5:53 PM37 °FSunny.10 mph27%30.26 "Hg10 mi
4:53 PM37 °FSunny.12 mph25%30.25 "Hg10 mi
Weather by CustomWeather, © 2014

See weather overview